Tracking 20626 objects as of 8-Apr-2020
HD Live streaming from Space Station
objects crossing your sky now

SL-12 DEB

Track SL-12 DEB now!
10-day predictions


NORAD ID: 26813
Int'l Code: 1989-001P
Perigee: 756.5 km
Apogee: 4,336.6 km
Inclination: 65.4 °
Period: 139.7 minutes
Semi major axis: 8917 km
RCS: 0.1185 m2 (medium)
Launch date: January 10, 1989
Source: Commonwealth of Independent States (former USSR) (CIS)
Launch site: TYURATAM MISSILE AND SPACE COMPLEX (TTMTR)

Note: This is SATELLITE DEBRIS
aabbcc
Your satellite tracking list
Your tracking list is empty




NASA's NSSDC Master Catalog

Two Line Element Set (TLE):
1 26813U 89001P   20099.04133816  .00033164  00000-0  81726-1 0  9996
2 26813  65.4276 319.5177 2007294 162.8788 205.1333 10.30941305648639
Source of the keplerian elements: AFSPC